Location: Aalen
(48.8330°N, 10.1000°E)
Time: 05:57:48
(UTC+02:00)

M-CUBED/EXP-1 PRIME - Pass Details

Date: 19 September 2021
Orbit: 427 x 655 km, 101.7° (Epoch: 23 October)

Event Time Altitude Azimuth Distance (km) Brightness Sun altitude
Rises 05:11:32 0° 29° (NNE) 2,479 ? -18.4°
Reaches altitude 10° 05:13:49 10° 42° (NE) 1,574 ? -18.0°
Maximum altitude 05:16:42 27° 102° (ESE) 877 ? -17.6°
Drops below altitude 10° 05:19:30 10° 162° (SSE) 1,524 ? -17.2°
Enters shadow 05:20:44 - 171° (S) 1,999 ? -17.0°
